Flag for U.S.A. Weather past 2 weeks in Chicago, Illinois, U.S.A.

Now
34 °F

Light snow. Mostly cloudy.


Feels Like: 27 °F
Forecast: 22 / 29 °F
Wind: 9 mph from North

Location: Chicago Midway Airport

Current Time: Jan 29, 2015 at 11:57:25 PM

Latest Report: Jan 29, 2015 at 10:53 PM


Visibility: 10 mi

Pressure: 30.31 "Hg

Humidity: 61%

Dew point: 22 °F

Location of ChicagoLocation

Historic Weather in Chicago — Graph

°F

Chicago temperature yesterday

Maximum temperature yesterday: 36 °F (at 10:53 PM)
Minimum temperature yesterday: 24 °F (at 4:53 AM)
Average temperature yesterday: 31 °F

Past Weeks' High & Low Weather Summary

 TemperatureHumidityPressure
High45 °F (Jan 24, 12:53 PM)93% (Jan 19, 7:53 AM)30.47 "Hg (Jan 19, 7:53 AM)
Low17 °F (Jan 14, 10:53 PM)49% (Jan 28, 11:53 AM)29.63 "Hg (Jan 17, 2:53 PM)
Average33 °F75%30.02 "Hg
* Reported Jan 14 10:53 PM — Jan 29 10:53 PM, Chicago, Weather by CustomWeather, © 2014

Note: Actual official high and low records may vary slightly from our data, if they occured in-between our weather recording intervals... More about our weather records

Advertising

Chicago weather history for previous 24 hours

 ConditionsComfort  
Time TempWeatherWind HumidityBarometerVisibility
10:53 PM
Jan 29
34 °FLight snow. Mostly cloudy.9 mph61%30.31 "Hg10 mi
9:53 PM36 °FLight snow. Overcast.14 mph52%30.28 "Hg10 mi
8:53 PM36 °FOvercast.17 mph52%30.26 "Hg10 mi
7:53 PM36 °FOvercast.17 mph59%30.23 "Hg10 mi
6:53 PM36 °FOvercast.21 mph64%30.22 "Hg10 mi
5:53 PM37 °FOvercast.20 mph62%30.18 "Hg10 mi
4:53 PM36 °FMostly cloudy.17 mph70%30.13 "Hg10 mi
3:53 PM36 °FOvercast.15 mph70%30.09 "Hg10 mi
2:53 PM36 °FOvercast.16 mph70%30.05 "Hg9 mi
1:53 PM35 °FOvercast.21 mph72%30.01 "Hg10 mi
12:53 PM35 °FOvercast.18 mph72%29.98 "Hg10 mi
11:53 AM35 °FOvercast.21 mph72%29.96 "Hg10 mi
10:53 AM36 °FOvercast.21 mph73%29.93 "Hg6 mi
9:53 AM35 °FOvercast.17 mph78%29.88 "Hg6 mi
8:53 AM36 °FLight snow. Fog.21 mph75%29.84 "Hg3 mi
7:53 AM37 °FOvercast.13 mph76%29.79 "Hg10 mi
6:53 AM37 °FOvercast.7 mph76%29.75 "Hg10 mi
5:53 AM36 °FOvercast.7 mph75%29.73 "Hg10 mi
4:53 AM37 °FPassing clouds.6 mph70%29.71 "Hg10 mi
3:53 AM39 °FOvercast.9 mph65%29.73 "Hg10 mi
2:53 AM38 °FOvercast.10 mph65%29.75 "Hg10 mi
1:53 AM38 °FOvercast.13 mph63%29.79 "Hg10 mi
12:53 AM37 °FOvercast.13 mph65%29.81 "Hg10 mi
11:53 PM
Jan 28
36 °FMostly cloudy.15 mph64%29.85 "Hg10 mi
Weather by CustomWeather, © 2014

See weather overviewHow to use our weather pages